Aérodrome :
LOGIN :

S'inscrire | Disclaimer

   EN    FR    IT 

 










Légende :    VFR   VFR Marginal   IFR   IFR Intensif   IFR Très Intensif
Visi : 
Plafond : 
>= 8 km
>= 3000ft
5 à 8 km
1000 à 3000 ft
1500m à 5 km
500 à 1000 ft
800 à 1500m
200 à 500 ft
< 800m
< 200 ft
Symboles :   Orages  Brouillard  Fortes neiges  Fortes précipitations  Vent > 20 kt
SIGMETs :   Divers  Orages  Givrage  Turbulence  Onde Orograph.  Cendres Volcan.







- Altitude de l'aérodrome : 1306 ft
- Code IATA : ACH


LSZR - Alten Rhein

DERNIER METAR :
  • 180620Z VRB02KT CAVOK 19/18 Q1018 NOSIG RMK C

METARs EXPIRÉS :
  • 180550Z VRB02KT CAVOK 19/18 Q1018 NOSIG RMK B
  • 180520Z VRB02KT CAVOK 19/18 Q1018 NOSIG RMK B
  • 180450Z VRB01KT CAVOK 18/17 Q1018 NOSIG RMK A
  • 180420Z 10002KT CAVOK 18/17 Q1018 NOSIG RMK A
  • 180350Z AUTO 11002KT CAVOK 17/17 Q1018

TAF TAF LSZR
Valide du 18 à 06h jusqu'au 18 à 15h UTC


180525Z 1806/1815 VRB03KT CAVOK
BECMG 1811/1813 9999 FEW070
BECMG 1813/1815 SCT060TCU
ATIS : +41 71 858 51 66
Pas de NOTAMs connus pour ce terrain.



MET'MAP, la Météo Aéronautique d'un coup d'oeil ! - Copyright ORBIFLY Décembre 2007 - Disclaimer

ORBIFLY MET'MAP TEAM :

Programmation & Développement : Alexandra Zaïnal
Conception & Développement : Baudouin d'Aumeries
Co-Programmation & Développement : Marc-Olivier Méhu
Soutien technique & logistique : Manuel Goepfert

Contact : metmap@orbifly.com




SOURCES & CREDITS :

   NOAA